Theta_e
288 288 288 288 288 288 288 288 288 288 288 288 288 288 289 290 290 290 290 290 291 291 291 291 290 289 291 290 290 290 290 290 289 288 288 288 288 287 288 288 286 286
286 287 287 287 287 287 288 288 287 287 287 288 288 288 289 289 289 289 289 289 289 290 290 290 290 289 289 289 288 289 289 288 288 289 287 286 286 286 287 287 287 287
285 285 285 285 286 285 286 287 287 287 287 287 288 288 288 289 288 288 288 287 287 288 288 288 288 288 288 287 287 287 287 287 287 287 286 286 286 285 286 286 286 286
284 284 284 285 285 285 284 284 285 285 286 286 286 287 288 288 287 287 287 287 287 287 286 286 286 286 286 287 286 287 287 286 286 286 286 286 285 285 285 285 285 285
284 284 284 284 284 284 283 283 283 284 284 285 285 286 286 286 286 286 286 286 287 287 287 286 286 286 285 286 286 286 286 286 286 285 285 285 286 285 285 285 284 284
284 284 283 283 283 283 283 282 283 283 283 284 284 285 285 284 284 284 285 285 286 286 286 286 287 287 286 285 285 286 286 286 286 285 285 285 285 286 286 285 284 284
285 285 285 285 284 284 283 283 283 282 281 282 283 283 283 283 283 283 284 284 285 285 285 286 286 286 287 286 285 285 285 285 285 285 285 285 285 285 285 285 285 284
284 284 284 284 283 282 282 282 283 283 283 283 281 281 280 281 281 282 282 282 283 284 285 285 285 286 286 286 286 285 285 286 286 285 285 285 285 285 285 286 285 285
283 282 282 282 282 282 281 281 282 282 283 282 282 282 282 281 281 281 281 281 281 282 283 284 284 284 285 285 285 285 285 286 286 285 285 285 285 285 286 286 285 285
281 281 281 281 281 282 282 282 281 282 282 281 281 281 281 282 281 281 281 281 281 282 282 283 283 284 284 284 285 285 285 285 285 286 285 285 285 286 286 286 286 285
280 280 280 280 280 281 281 282 281 281 282 281 281 281 281 281 281 281 281 281 281 281 282 282 282 283 283 284 284 284 284 284 284 285 285 285 285 286 286 286 286 285
281 280 281 280 280 280 281 282 282 282 282 282 281 281 281 281 281 281 281 281 281 281 281 281 282 282 282 282 283 284 284 284 284 284 284 284 285 285 285 285 285 285
279 280 280 280 280 280 280 280 281 281 281 281 281 280 280 281 281 281 281 281 281 281 281 281 281 282 282 282 283 282 283 283 283 283 283 284 284 284 284 284 285 285
280 279 279 279 280 280 280 280 280 280 279 280 280 280 280 280 280 280 281 281 281 281 281 281 281 281 282 282 282 282 282 282 283 283 283 283 283 284 284 284 284 284
279 279 280 280 280 280 281 281 281 281 281 281 281 280 280 279 279 279 279 280 280 280 281 281 281 281 282 282 282 282 282 281 282 283 283 282 283 283 284 284 284 284
279 279 280 280 280 280 280 280 280 280 280 280 281 281 281 281 280 280 279 279 279 279 279 280 280 281 283 285 287 284 283 283 283 283 283 283 282 282 283 284 284 284
279 279 279 279 279 279 279 279 279 280 280 280 280 280 280 280 280 280 280 280 280 279 279 280 280 281 284 286 286 287 285 283 283 283 283 283 283 282 282 283 283 284
278 278 278 278 278 278 278 278 278 278 278 278 279 279 279 280 279 279 280 280 280 280 279 279 279 283 285 285 285 286 286 284 283 282 283 283 283 282 282 282 282 283
276 276 276 276 276 276 276 275 275 275 275 276 276 277 277 277 277 278 278 279 279 278 278 279 279 282 284 284 285 285 286 285 283 283 282 282 283 282 282 282 282 282
274 273 274 274 273 273 273 273 273 273 273 274 274 274 274 274 274 275 275 276 276 277 277 277 278 281 283 283 284 284 285 285 282 282 282 282 282 282 282 282 282 281
272 272 271 271 271 271 270 270 270 269 270 270 270 270 270 270 270 270 271 272 273 274 274 275 276 279 280 281 282 283 284 285 282 282 281 281 281 281 282 282 282 282
269 268 268 267 267 267 266 266 266 266 266 267 267 267 267 268 268 269 269 269 270 271 271 272 273 278 279 280 281 282 284 281 280 280 280 280 280 281 281 281 282 282
267 266 265 265 265 264 264 264 264 264 264 265 264 264 265 265 265 266 267 267 267 268 269 270 271 274 277 278 280 281 281 279 279 279 279 279 279 280 280 280 281 281
265 264 263 263 263 262 262 263 263 263 262 263 262 262 262 263 263 264 264 265 265 266 267 267 268 271 274 276 277 278 278 276 277 278 278 279 279 280 280 280 280 282
263 263 262 262 261 261 261 261 261 261 262 262 262 262 262 262 262 262 262 263 264 264 266 265 264 267 271 273 274 275 274 274 275 276 276 277 278 279 279 279 279 281
262 262 261 261 260 260 260 260 261 260 260 261 260 261 260 261 261 261 261 261 262 263 263 263 264 264 267 272 273 274 276 273 273 273 274 275 277 277 277 278 278 279
Wind_Speed
7 7 7 8 8 7 8 8 8 8 8 7 8 8 8 8 9 9 9 9 9 7 6 5 4 4 5 4 4 5 5 6 7 6 7 8 8 8 10 11 9 9
7 7 6 6 7 7 7 6 6 6 7 7 7 7 7 9 9 8 9 9 8 8 7 6 5 5 5 4 5 5 6 6 7 5 7 7 8 8 10 10 10 10
7 8 8 8 7 7 7 7 6 7 7 7 7 8 8 8 9 9 9 8 8 8 7 6 6 6 6 5 5 5 6 6 7 7 7 7 8 8 8 8 8 10
7 7 7 7 7 7 6 6 6 6 6 8 8 8 7 7 8 9 10 10 9 9 8 7 6 5 5 6 5 6 6 6 6 6 7 6 6 7 8 7 8 8
5 6 6 5 5 5 6 6 7 6 6 6 6 7 8 9 9 9 9 10 9 9 9 9 7 6 5 5 5 6 6 7 6 5 6 7 7 6 7 6 8 9
5 4 5 4 5 5 6 6 5 6 7 7 8 7 7 7 7 8 9 10 10 9 9 9 9 8 7 6 6 5 6 7 7 6 6 7 8 7 6 6 8 9
5 4 4 3 3 2 2 3 4 4 4 4 5 7 6 7 7 7 7 7 8 9 9 9 9 9 8 7 6 6 6 6 7 6 7 7 6 8 7 7 8 9
5 4 4 4 4 4 4 3 3 3 3 3 3 5 3 4 5 5 5 6 6 8 8 8 8 8 8 7 7 8 8 6 6 7 7 7 6 8 8 7 7 9
4 4 4 4 3 4 4 5 5 4 4 3 5 4 3 4 5 5 6 6 5 5 5 6 7 8 7 7 7 7 8 8 7 7 8 8 8 9 8 8 9 9
4 5 4 5 4 5 5 6 5 5 5 4 5 4 6 6 5 6 5 6 6 7 6 6 6 7 7 7 8 7 8 9 9 8 8 8 9 9 9 8 10 10
5 4 4 4 5 5 5 5 5 6 5 5 6 6 6 6 6 5 6 6 7 8 8 8 8 7 7 8 8 7 8 8 8 8 8 9 9 9 9 9 10 10
6 6 7 7 7 6 7 8 9 9 10 9 7 10 9 6 7 6 6 8 7 7 7 8 8 8 8 8 8 8 8 8 8 8 8 9 9 9 9 8 9 10
6 7 7 7 7 7 7 7 8 8 8 9 8 8 10 12 11 11 9 8 9 7 8 9 8 8 9 9 9 8 9 9 9 8 9 8 8 9 8 8 9 10
6 6 6 6 6 6 7 7 7 7 8 8 7 8 9 9 10 10 11 10 11 10 9 8 8 9 9 9 9 9 9 9 9 9 9 9 9 9 9 9 9 10
6 6 6 7 8 8 10 11 11 11 10 10 9 9 7 8 8 8 10 11 10 10 11 10 9 10 9 8 9 10 9 9 10 10 10 10 10 10 10 10 9 9
8 8 9 9 10 10 10 10 10 10 10 11 12 12 12 12 11 10 10 10 10 10 10 9 10 9 13 18 14 12 12 11 11 11 11 10 11 11 10 10 10 10
9 9 10 11 11 10 11 11 11 11 11 11 12 12 13 13 13 14 14 12 12 12 13 12 11 11 18 19 21 23 16 13 12 13 12 12 11 12 12 11 10 10
9 9 10 10 10 10 11 10 10 11 11 11 11 12 12 11 12 13 13 13 12 13 14 13 13 13 22 24 25 25 22 16 13 12 12 12 12 13 12 11 11 11
9 10 11 10 9 9 9 11 11 12 13 13 13 12 12 13 14 14 14 14 13 14 13 15 15 17 24 26 27 28 28 23 14 13 13 13 13 14 14 13 11 11
10 9 9 9 9 10 11 11 12 12 12 11 12 13 13 14 14 14 14 12 14 15 15 13 17 20 30 30 29 30 29 25 15 16 15 15 15 14 14 14 14 12
8 9 9 10 10 10 11 11 12 12 13 11 11 12 11 13 12 15 15 15 16 15 16 14 17 30 33 34 33 32 32 27 17 16 15 15 14 14 14 15 15 14
9 9 9 10 11 11 11 12 12 10 12 11 11 12 12 12 12 13 14 16 14 15 14 18 18 31 33 33 34 33 34 21 16 16 16 16 16 15 14 13 13 14
9 9 10 10 10 12 12 12 11 13 11 8 12 11 13 12 13 12 13 14 16 17 14 17 17 27 33 34 34 35 27 17 16 15 15 16 17 16 16 15 14 13
9 8 10 10 11 11 12 12 11 10 10 10 11 13 13 12 13 12 14 11 16 15 16 16 17 24 33 32 34 34 29 21 18 16 16 16 16 17 15 14 15 21
8 9 9 10 11 11 11 12 12 11 11 10 9 11 11 13 12 12 14 11 11 14 24 20 18 22 30 31 33 32 26 18 17 16 17 17 16 16 15 13 13 15
8 9 9 10 12 12 11 10 10 9 11 10 11 10 11 11 10 12 15 13 10 12 12 13 16 17 21 30 29 29 29 20 16 16 17 18 17 16 16 15 15 15
Wind_Direction
31 26 26 30 31 30 27 22 14 12 7 2 2 349 347 337 342 346 342 341 343 321 293 280 273 272 270 272 267 263 257 254 258 253 250 246 249 245 244 243 238 230
30 31 31 30 29 25 25 28 19 18 6 4 357 349 347 347 344 345 340 339 340 343 333 320 309 292 284 279 276 274 271 267 264 259 256 253 250 248 249 247 244 242
23 25 25 28 27 22 18 13 17 13 12 0 356 1 351 351 346 344 341 340 335 335 338 334 325 315 303 293 285 278 272 270 269 265 258 257 256 249 251 248 249 245
13 21 21 18 18 15 8 13 11 12 3 5 1 350 351 342 347 345 343 342 338 332 329 329 325 316 311 301 298 288 273 267 260 267 271 271 261 255 256 251 252 254
6 7 12 14 7 6 4 7 4 0 2 352 349 351 349 351 347 345 342 337 337 332 329 327 324 320 316 312 303 295 287 278 275 268 265 268 267 261 259 253 256 256
2 9 2 1 354 354 357 354 344 346 345 350 347 343 344 343 340 338 338 336 333 331 327 327 327 323 322 315 312 296 288 286 277 274 271 266 271 265 263 259 259 259
342 347 343 340 331 316 301 306 306 316 317 313 326 328 330 330 332 329 325 324 322 324 326 325 327 324 324 322 316 306 297 283 282 276 270 269 265 271 268 263 262 263
312 312 312 322 329 328 312 306 286 276 266 280 282 278 280 292 295 298 298 300 308 312 319 322 323 324 322 322 315 313 304 293 287 280 274 271 265 268 268 264 260 263
294 292 294 292 296 295 289 290 286 282 268 256 275 282 262 248 258 267 272 274 278 285 296 309 314 315 317 317 313 306 301 299 290 281 277 276 271 265 264 264 267 263
282 285 291 284 276 270 263 265 263 260 263 259 267 271 288 287 280 281 281 286 294 297 300 300 304 306 309 310 306 303 299 294 292 287 277 272 271 270 267 263 262 266
302 289 280 281 279 281 279 274 261 256 249 250 258 261 261 272 278 280 290 294 297 300 304 304 299 296 296 297 296 296 293 290 286 285 281 275 270 270 267 263 262 260
316 321 315 309 305 304 304 306 310 312 313 311 307 307 300 280 277 280 278 287 288 289 287 286 287 286 284 283 285 287 287 284 282 278 277 276 274 269 267 262 260 260
310 304 300 300 301 299 303 304 300 295 294 290 294 295 300 305 306 305 299 286 285 282 281 281 281 279 279 277 275 275 276 278 278 275 273 274 272 269 265 262 259 260
306 303 300 293 291 293 292 291 287 281 274 272 275 280 281 280 282 286 292 296 293 291 283 275 271 274 273 274 272 270 271 271 270 271 271 269 271 269 267 264 262 260
314 310 302 302 303 306 307 306 305 303 302 300 296 288 275 264 262 267 276 279 279 280 286 287 285 281 277 273 276 274 264 264 266 264 263 265 264 263 261 261 261 259
319 315 313 312 312 309 306 303 300 300 300 301 302 303 303 302 298 288 278 276 279 280 277 279 278 276 276 275 266 270 278 274 270 265 262 260 259 260 259 255 253 254
326 318 316 314 312 313 311 309 306 306 307 306 306 304 302 302 299 297 297 295 293 293 294 291 286 285 280 275 274 269 268 273 271 272 269 266 264 260 260 257 254 252
315 314 314 313 317 313 313 314 318 318 316 315 313 312 310 308 305 300 299 300 299 297 293 290 289 283 286 288 286 284 279 272 268 267 268 269 267 263 261 259 258 257
318 319 317 315 318 324 326 325 322 319 317 317 315 313 311 307 304 305 302 302 300 298 294 293 291 287 288 289 289 288 285 282 277 271 269 267 266 266 264 262 257 255
317 316 317 323 329 327 323 321 321 318 319 319 317 316 312 309 307 304 304 301 300 297 296 294 290 290 291 291 290 289 288 286 279 277 273 268 265 262 264 264 260 255
322 329 329 327 328 328 326 322 319 317 315 316 314 308 308 306 304 304 300 298 296 296 295 292 290 290 291 291 291 290 289 289 284 281 276 273 269 263 260 260 259 258
340 333 331 329 325 322 319 314 312 310 310 314 309 301 299 297 295 296 294 296 296 295 294 289 288 290 291 291 291 291 290 288 285 280 278 275 272 269 264 259 257 256
339 331 324 321 319 316 312 309 310 309 307 310 301 298 299 299 300 298 298 300 300 300 298 297 296 297 296 296 295 295 294 289 285 280 275 272 270 269 267 264 261 253
328 322 317 315 313 308 305 303 303 298 295 303 297 300 296 296 300 297 294 293 295 297 297 297 297 299 299 297 296 295 293 293 293 289 282 277 273 269 266 262 258 256
317 314 310 307 303 300 300 299 299 296 295 295 287 290 289 296 296 292 292 290 295 298 301 300 299 299 301 301 299 297 295 290 288 285 284 279 278 276 272 265 262 257
309 306 302 301 299 297 294 290 293 294 293 293 291 287 288 288 288 287 290 293 296 292 290 290 291 292 297 299 298 297 294 290 283 284 282 282 280 279 278 273 267 263